User: anonymous   Login
Location: Pine Mountain Observatory
(43.7910°N, 120.9377°W)
Time: 23:23:39
(UTC-07:00)
Language:

Cosmos 1076 Rocket - Orbit

View from above orbital plane
View from above orbital plane
View from above satellite
View from above satellite

Ground track
Ground track

The orbit data is extracted from the following two-line orbital elements,

1 11267U 79011B   17080.86411729 +.00000090 +00000-0 +68575-5 0  9994
2 11267 082.5247 311.9288 0017509 155.4168 204.7889 14.88825389041279
Epoch (UTC): 21 March 2017 20:44:19
Eccentricity: 0.0017509
inclination: 82.5247°
perigee height: 589 km
apogee height: 614 km
right ascension of ascending node: 311.9288°
argument of perigee: 155.4168°
revolutions per day: 14.88825389
mean anomaly at epoch: 204.7889°
orbit number at epoch: 4127

The dashed part of the orbit path shows where the satellite is in the earth's shadow,  

DLR